Cortez, CO

2:20 PM MDT on July 27, 2016 (GMT -0600)
Cortez Municipal

Weather History for KCEZ - March, 2013

Change the Weather History Date:

Thursday, March 28, 2013

  Actual Average Record
Temperature  
Mean Temperature 48 °F 42 °F  
Max Temperature 67 °F 59 °F 74 °F (2015)
Min Temperature 29 °F 26 °F 16 °F (2009)
Degree Days  
Heating Degree Days 17 23  
Month to date heating degree days 684 734  
Since 1 July heating degree days 5550 5464  
Cooling Degree Days 0 0  
Month to date cooling degree days 0 0  
Year to date cooling degree days 0 0  
Moisture  
Dew Point 16 °F    
Average Humidity 33    
Maximum Humidity 54    
Minimum Humidity 12    
Precipitation  
Precipitation 0.00 in 0.04 in 0.21 in (2006)
Month to date precipitation 0.30 1.07  
Year to date precipitation 2.51 2.96  
Sea Level Pressure  
Sea Level Pressure 30.02 in    
Wind  
Wind Speed 6 mph (SE)    
Max Wind Speed 24 mph    
Max Gust Speed 36 mph    
Visibility 10 miles    
Events      
T = Trace of Precipitation, MM = Missing Value Source: NWS Daily Summary

Daily Weather History Graph

Daily Weather History Graph

Search for Another Location

Airport or City:

Trip Planner

Search our weather history database for the weather conditions in past years. The results will help you decide how hot, cold, wet, or windy it might be!

Date:

Astronomy

Mar. 28, 2013 Rise Set
Actual Time 7:05 AM MDT 7:33 PM MDT
Civil Twilight 6:39 AM MDT 8:00 PM MDT
Nautical Twilight 6:08 AM MDT 8:30 PM MDT
Astronomical Twilight 5:37 AM MDT 9:02 PM MDT
Moon 9:25 PM MDT (3/28) 7:38 AM MDT (3/28)
Length of Visible Light 13h 20m
Length of Day
12h 28m
Full, 98% of the Moon is Illuminated
Mar 28
Full
Apr 2
Last Quarter
Apr 10
New
Apr 18
First Quarter
Apr 25
Full

Hourly Weather History & Observations

Time (MDT) Temp. Windchill Dew Point Humidity Pressure Visibility Wind Dir Wind Speed Gust Speed Precip Events Conditions
12:53 AM 35.1 °F - 15.1 °F 44% 29.98 in 10.0 mi Calm Calm - N/A   Overcast
1:53 AM 35.1 °F 32.2 °F 17.1 °F 48% 29.99 in 10.0 mi East 3.5 mph - N/A   Mostly Cloudy
2:53 AM 39.9 °F 36.7 °F 17.1 °F 40% 29.98 in 10.0 mi ENE 4.6 mph - N/A   Overcast
3:53 AM 39.9 °F 35.1 °F 18.0 °F 41% 29.96 in 10.0 mi NE 6.9 mph - N/A   Overcast
4:53 AM 37.9 °F 32.7 °F 18.0 °F 45% 29.97 in 10.0 mi East 6.9 mph - N/A   Clear
5:53 AM 37.0 °F - 18.0 °F 46% 29.99 in 10.0 mi Calm Calm - N/A   Overcast
6:53 AM 32.0 °F - 18.0 °F 56% 30.02 in 10.0 mi Calm Calm - N/A   Partly Cloudy
7:53 AM 35.1 °F - 18.0 °F 50% 30.06 in 10.0 mi Calm Calm - N/A   Clear
8:53 AM 44.1 °F - 21.0 °F 40% 30.06 in 10.0 mi Calm Calm - N/A   Clear
9:53 AM 52.0 °F - 19.0 °F 27% 30.05 in 10.0 mi Calm Calm - N/A   Clear
10:53 AM 59.0 °F - 14.0 °F 17% 30.03 in 10.0 mi SSW 9.2 mph - N/A   Clear
11:53 AM 61.0 °F - 14.0 °F 16% 30.05 in 10.0 mi SW 12.7 mph - N/A   Clear
12:53 PM 64.0 °F - 15.1 °F 15% 30.02 in 10.0 mi South 10.4 mph 17.3 mph N/A   Clear
1:17 PM 62.6 °F - 15.8 °F 16% 30.13 in 10.0 mi West 9.2 mph 20.7 mph N/A   Clear
1:53 PM 63.0 °F - 16.0 °F 16% 30.03 in 10.0 mi Variable 6.9 mph - N/A   Clear
2:53 PM 66.0 °F - 16.0 °F 15% 29.99 in 10.0 mi South 9.2 mph 20.7 mph N/A   Clear
3:53 PM 64.9 °F - 10.0 °F 12% 29.96 in 10.0 mi WSW 11.5 mph 17.3 mph N/A   Clear
4:53 PM 66.9 °F - 12.0 °F 12% 29.96 in 10.0 mi West 11.5 mph 19.6 mph N/A   Clear
5:53 PM 64.0 °F - 10.9 °F 13% 29.97 in 10.0 mi SW 10.4 mph - N/A   Clear
6:53 PM 62.1 °F - 10.9 °F 13% 30.00 in 10.0 mi WNW 5.8 mph - N/A   Clear
7:53 PM 48.9 °F - 14.0 °F 25% 30.04 in 10.0 mi Calm Calm - N/A   Clear
8:53 PM 46.0 °F 43.9 °F 16.0 °F 30% 30.04 in 10.0 mi NE 4.6 mph - N/A   Clear
9:53 PM 42.1 °F 36.1 °F 16.0 °F 35% 30.04 in 10.0 mi NE 10.4 mph - N/A   Clear
10:53 PM 41.0 °F 38.0 °F 17.1 °F 38% 30.03 in 10.0 mi NE 4.6 mph - N/A   Clear
11:53 PM 37.9 °F 34.4 °F 16.0 °F 41% 30.04 in 10.0 mi East 4.6 mph - N/A   Clear